Location: Newark
(45.8667°N, 9.7333°E)
Time: 19:03:09
(UTC+00:00)

Vanguard 3 - Pass Details

Date: 01 February 2020
Orbit: 508 x 3263 km, 33.3° (Epoch: 17 February)

Event Time Altitude Azimuth Distance (km) Brightness Sun altitude
Rises 13:45:33 0° 217° (SW) 5,839 13.1 20.4°
Reaches altitude 10° 13:49:22 10° 209° (SSW) 5,167 13.5 20.0°
Maximum altitude 14:03:44 38° 149° (SSE) 4,126 11.2 18.5°
Drops below altitude 10° 14:20:47 10° 91° (E) 6,132 11.3 16.6°
Sets 14:25:48 0° 85° (E) 7,004 11.5 16.1°
